This is the latest recevied weather packets stored in our database for station/object K9RJT. If no packets are shown the sender has not sent any weather packets the latest 10 day(s).
| Time | Temp. | Humidity | Pressure | Rain* | Wind** | Luminosity | Snow |
|---|---|---|---|---|---|---|---|
| 1778010439 | 23.89° C | 41% | 1008.6 hPa | 0 mm | - | 698 W/m² | - |
| 1778010135 | 23.89° C | 42% | 1008.5 hPa | 0 mm | - | 700 W/m² | - |
| 1778009831 | 23.33° C | 43% | 1008.5 hPa | 0 mm | - | 694 W/m² | - |
| 1778009528 | 23.33° C | 43% | 1008.6 hPa | 0 mm | - | 692 W/m² | - |
| 1778009227 | 22.78° C | 44% | 1008.7 hPa | 0 mm | - | 691 W/m² | - |
| 1778008924 | 23.33° C | 43% | 1008.8 hPa | 0 mm | - | 691 W/m² | - |
| 1778008622 | 23.33° C | 43% | 1008.8 hPa | 0 mm | - | 688 W/m² | - |
| 1778008320 | 23.89° C | 42% | 1008.8 hPa | 0 mm | - | 686 W/m² | - |
| 1778008016 | 22.78° C | 43% | 1008.9 hPa | 0 mm | - | 684 W/m² | - |
| 1778007715 | 23.33° C | 44% | 1008.9 hPa | 0 mm | - | 681 W/m² | - |
| 1778007413 | 22.78° C | 44% | 1008.8 hPa | 0 mm | - | 677 W/m² | - |
| 1778007109 | 22.22° C | 44% | 1009 hPa | 0 mm | - | 673 W/m² | - |
| 1778006805 | 22.22° C | 45% | 1009 hPa | 0 mm | - | 673 W/m² | - |
| 1778006503 | 22.78° C | 46% | 1009 hPa | 0 mm | - | 668 W/m² | - |
| 1778006200 | 21.67° C | 45% | 1009.1 hPa | 0 mm | - | 664 W/m² | - |
| 1778005897 | 21.67° C | 46% | 1009 hPa | 0 mm | - | 659 W/m² | - |
| 1778005593 | 21.67° C | 46% | 1008.9 hPa | 0 mm | - | 655 W/m² | - |
| 1778005290 | 21.11° C | 47% | 1009.1 hPa | 0 mm | - | 650 W/m² | - |
| 1778004986 | 21.11° C | 47% | 1009.2 hPa | 0 mm | - | 644 W/m² | - |
| 1778004684 | 21.11° C | 47% | 1009.2 hPa | 0 mm | - | 639 W/m² | - |
| 1778004380 | 21.11° C | 48% | 1009.1 hPa | 0 mm | - | 631 W/m² | - |
| 1778004078 | 20.56° C | 49% | 1009.1 hPa | 0 mm | - | 628 W/m² | - |
| 1778003773 | 20° C | 49% | 1009.1 hPa | 0 mm | - | 620 W/m² | - |
| 1778003470 | 20° C | 49% | 1009.3 hPa | 0 mm | - | 612 W/m² | - |
| 1778003167 | 20° C | 49% | 1009.1 hPa | 0 mm | - | 606 W/m² | - |
* Rain latest hour (hover to see other rain measurements)
** Current wind speed in m/s (hover to see current wind gust speed)